sat.trackr.live / text

‹ back to catalog

STARLINK-4595

NORAD 53627 · 2022-104AR

PAYLOAD ACTIVE UNKNOWN

§ Identity

Operator
Country
US
Launch date
2022-08-28
Launch site
AFETR
Launch vehicle
Mass (kg)
RCS (m²)

Purposes: comms

External: N2YO · Heavens-Above · Gunter

§ Orbital elements

Epoch: 2026-05-25T00:42:01.990080Z

Period
95.44 min
Inclination
53.2149°
Eccentricity
0.0001254
Mean motion
15.08843711 rev/d
Perigee alt
538.9 km
Apogee alt
540.6 km
Semi-major
6,917.9 km
B*
-2.2246e-7
RAAN
251.1375°
Arg perigee
77.7655°
Mean anomaly
282.3477°
Rev number
20,728

§ Raw data

STARLINK-45951 53627U 22104AR  26145.02918970 -.00000291  00000+0 -22246-6 0  99912 53627  53.2149 251.1375 0001254  77.7655 282.3477 15.08843711207282

JSON: /api/v1/satellites/53627 · /tle

For live sub-satellite position, see the globe view (requires WebGL).

§ Visibility from observer

Set your observer location to see the next 7 days of passes ≥ 10°. The values pass through the URL so the page stays shareable.

No JS? Fill the form by hand. The geolocation button needs JavaScript.